Weather History for Buckhannon, WV

Change the Weather History Date:

Friday, November 18, 2011

  Actual Average (KEKN) Record (KEKN)
Temperature  
Mean Temperature 33 °F 41 °F  
Max Temperature 42 °F 52 °F 80 °F (1958)
Min Temperature 24 °F 30 °F 7 °F (1997)
Degree Days  
Heating Degree Days 32 24  
Month to date heating degree days 381  
Since 1 July heating degree days 972  
Cooling Degree Days 0 0  
Month to date cooling degree days 0  
Year to date cooling degree days 475  
Moisture  
Dew Point 16 °F    
Average Humidity 50    
Maximum Humidity 74    
Minimum Humidity 29    
Precipitation  
Precipitation 0.00 in 0.12 in 1.02 in (1984)
Month to date precipitation 1.99  
Year to date precipitation 41.28  
Snow  
Snow 0.00 in - - ()
Month to date snowfall  
Since 1 September snowfall  
Snow Depth -    
Sea Level Pressure  
Sea Level Pressure 30.37 in    
Wind  
Wind Speed 5 mph (SW)    
Max Wind Speed 12 mph    
Max Gust Speed 20 mph    
Visibility 10 miles    
Events      
T = Trace of Precipitation, MM = Missing Value Source: NWS Daily Summary

Daily Weather History Graph

Daily Weather History Graph

Search for Another Location

Airport:

Trip Planner

Search our weather history database for the weather conditions in past years. The results will help you decide how hot, cold, wet, or windy it might be!

Date:

Astronomy

Nov. 18, 2011 Rise Set
Actual Time 7:06 AM EST 5:05 PM EST
Civil Twilight 6:38 AM EST 5:33 PM EST
Nautical Twilight 6:05 AM EST 6:06 PM EST
Astronomical Twilight 5:34 AM EST 6:37 PM EST
Moon No Moon Rise 12:47 PM EST (11/18)
Length of Visible Light 10h 55m
Length of Day
9h 58m
Waning Gibbous, 49% of the Moon is Illuminated
Nov 18
Waning Gibbous
Nov 25
New
Dec 2
First Quarter
Dec 10
Full
Dec 17
Last Quarter

Hourly Weather History & Observations

Time (EST) Temp. Windchill Dew Point Humidity Pressure Visibility Wind Dir Wind Speed Gust Speed Precip Events Conditions
12:15 AM 30.2 °F 20.8 °F 14.0 °F 51% 30.31 in 10.0 mi WNW 11.5 mph 19.6 mph N/A   Clear
12:35 AM 30.2 °F 22.6 °F 14.0 °F 51% 30.31 in 10.0 mi West 8.1 mph - N/A   Clear
12:55 AM 30.2 °F 21.9 °F 14.0 °F 51% 30.31 in 10.0 mi West 9.2 mph - N/A   Clear
1:15 AM 30.2 °F 23.4 °F 14.0 °F 51% 30.31 in 10.0 mi West 6.9 mph - N/A   Clear
1:35 AM 28.4 °F 20.4 °F 14.0 °F 55% 30.32 in 10.0 mi WSW 8.1 mph - N/A   Clear
1:55 AM 28.4 °F 21.2 °F 14.0 °F 55% 30.33 in 10.0 mi WSW 6.9 mph - N/A   Clear
2:15 AM 28.4 °F 21.2 °F 14.0 °F 55% 30.34 in 10.0 mi West 6.9 mph - N/A   Clear
2:35 AM 28.4 °F 21.2 °F 14.0 °F 55% 30.34 in 10.0 mi West 6.9 mph - N/A   Clear
2:55 AM 28.4 °F 21.2 °F 14.0 °F 55% 30.35 in 10.0 mi WSW 6.9 mph - N/A   Clear
3:15 AM 28.4 °F 20.4 °F 14.0 °F 55% 30.36 in 10.0 mi WSW 8.1 mph - N/A   Clear
3:35 AM 28.4 °F 21.2 °F 14.0 °F 55% 30.37 in 10.0 mi WSW 6.9 mph - N/A   Clear
3:55 AM 28.4 °F 21.2 °F 14.0 °F 55% 30.37 in 10.0 mi WSW 6.9 mph - N/A   Clear
4:15 AM 28.4 °F 22.2 °F 14.0 °F 55% 30.37 in 10.0 mi West 5.8 mph - N/A   Clear
4:35 AM 28.4 °F - 14.0 °F 55% 30.37 in 10.0 mi Calm Calm - N/A   Clear
5:15 AM 26.6 °F - 14.0 °F 59% 30.38 in 10.0 mi Calm Calm - N/A   Clear
5:35 AM 26.6 °F - 14.0 °F 59% 30.38 in 10.0 mi Calm Calm - N/A   Clear
5:55 AM 26.6 °F - 15.8 °F 64% 30.39 in 10.0 mi Calm Calm - N/A   Clear
6:35 AM 24.8 °F - 15.8 °F 69% 30.39 in 10.0 mi Calm Calm - N/A   Clear
6:55 AM 24.8 °F - 17.6 °F 74% 30.40 in 10.0 mi Calm Calm - N/A   Clear
7:15 AM 24.8 °F - 17.6 °F 74% 30.41 in 10.0 mi Calm Calm - N/A   Clear
7:35 AM 24.8 °F - 17.6 °F 74% 30.42 in 10.0 mi Calm Calm - N/A   Clear
7:55 AM 26.6 °F - 17.6 °F 69% 30.42 in 10.0 mi Calm Calm - N/A   Clear
8:15 AM 26.6 °F - 19.4 °F 74% 30.42 in 10.0 mi Calm Calm - N/A   Clear
8:35 AM 26.6 °F - 17.6 °F 69% 30.44 in 10.0 mi Calm Calm - N/A   Clear
8:55 AM 28.4 °F - 19.4 °F 69% 30.44 in 10.0 mi Calm Calm - N/A   Clear
9:15 AM 30.2 °F 25.4 °F 19.4 °F 64% 30.45 in 10.0 mi South 4.6 mph - N/A   Clear
9:35 AM 32.0 °F 27.5 °F 19.4 °F 60% 30.45 in 10.0 mi South 4.6 mph - N/A   Clear
9:55 AM 32.0 °F 24.8 °F 19.4 °F 60% 30.46 in 10.0 mi South 8.1 mph - N/A   Clear
10:15 AM 32.0 °F 26.4 °F 17.6 °F 55% 30.46 in 10.0 mi South 5.8 mph - N/A   Clear
10:35 AM 33.8 °F 28.6 °F 19.4 °F 56% 30.46 in 10.0 mi South 5.8 mph - N/A   Clear
10:55 AM 33.8 °F - 17.6 °F 52% 30.45 in 10.0 mi Calm Calm - N/A   Clear
11:15 AM 35.6 °F 29.9 °F 17.6 °F 48% 30.45 in 10.0 mi South 6.9 mph - N/A   Clear
11:55 AM 37.4 °F 32.8 °F 17.6 °F 45% 30.43 in 10.0 mi South 5.8 mph - N/A   Clear
12:15 PM 37.4 °F 34.9 °F 17.6 °F 45% 30.42 in 10.0 mi SSW 3.5 mph - N/A   Clear
12:35 PM 37.4 °F - 17.6 °F 45% 30.40 in 10.0 mi Calm Calm - N/A   Clear
12:55 PM 37.4 °F - 17.6 °F 45% 30.39 in 10.0 mi Calm Calm - N/A   Clear
1:15 PM 39.2 °F - 15.8 °F 39% 30.38 in 10.0 mi Calm Calm - N/A   Clear
1:35 PM 39.2 °F - 14.0 °F 36% 30.37 in 10.0 mi Calm Calm - N/A   Clear
1:55 PM 39.2 °F 35.0 °F 15.8 °F 39% 30.36 in 10.0 mi SW 5.8 mph - N/A   Clear
2:15 PM 39.2 °F - 15.8 °F 39% 30.35 in 10.0 mi Calm Calm - N/A   Clear
2:35 PM 39.2 °F - 14.0 °F 36% 30.34 in 10.0 mi Calm Calm - N/A   Clear
2:55 PM 41.0 °F - 14.0 °F 33% 30.34 in 10.0 mi Calm Calm - N/A   Clear
3:15 PM 42.8 °F - 14.0 °F 31% 30.33 in 10.0 mi Calm Calm - N/A   Clear
3:35 PM 42.8 °F - 12.2 °F 29% 30.33 in 10.0 mi Calm Calm - N/A   Clear
3:55 PM 42.8 °F - 14.0 °F 31% 30.33 in 10.0 mi Calm Calm - N/A   Clear
4:15 PM 42.8 °F - 14.0 °F 31% 30.32 in 10.0 mi Calm Calm - N/A   Clear
4:35 PM 42.8 °F - 14.0 °F 31% 30.32 in 10.0 mi Calm Calm - N/A   Clear
4:55 PM 39.2 °F - 14.0 °F 36% 30.31 in 10.0 mi Calm Calm - N/A   Clear
5:15 PM 39.2 °F - 12.2 °F 33% 30.30 in 10.0 mi Calm Calm - N/A   Clear
5:35 PM 39.2 °F - 14.0 °F 36% 30.30 in 10.0 mi Calm Calm - N/A   Clear
5:55 PM 39.2 °F - 14.0 °F 36% 30.30 in 10.0 mi Calm Calm - N/A   Clear
6:15 PM 37.4 °F - 15.8 °F 41% 30.29 in 10.0 mi Calm Calm - N/A   Clear
6:35 PM 35.6 °F - 17.6 °F 48% 30.28 in 10.0 mi Calm Calm - N/A   Clear
6:55 PM 37.4 °F - 15.8 °F 41% 30.28 in 10.0 mi Calm Calm - N/A   Clear
7:15 PM 35.6 °F - 17.6 °F 48% 30.28 in 10.0 mi Calm Calm - N/A   Clear
7:35 PM 35.6 °F - 17.6 °F 48% 30.28 in 10.0 mi Calm Calm - N/A   Clear
7:55 PM 33.8 °F - 19.4 °F 56% 30.28 in 10.0 mi Calm Calm - N/A   Clear
8:15 PM 33.8 °F - 19.4 °F 56% 30.27 in 10.0 mi Calm Calm - N/A   Clear
8:35 PM 33.8 °F - 19.4 °F 56% 30.27 in 10.0 mi Calm Calm - N/A   Clear
8:55 PM 32.0 °F - 23.0 °F 69% 30.27 in 10.0 mi Calm Calm - N/A   Clear
9:15 PM 32.0 °F - 21.2 °F 64% 30.26 in 10.0 mi Calm Calm - N/A   Clear
9:55 PM 32.0 °F - 21.2 °F 64% 30.26 in 10.0 mi Calm Calm - N/A   Clear
10:15 PM 32.0 °F - 21.2 °F 64% 30.26 in 10.0 mi Calm Calm - N/A   Clear
10:55 PM 33.8 °F - 19.4 °F 56% 30.26 in 10.0 mi Calm Calm - N/A   Clear
11:15 PM 33.8 °F - 19.4 °F 56% 30.25 in 10.0 mi Calm Calm - N/A   Clear
11:35 PM 33.8 °F - 19.4 °F 56% 30.25 in 10.0 mi Calm Calm - N/A   Clear
11:55 PM 37.4 °F - 15.8 °F 41% 30.25 in 10.0 mi Calm Calm - N/A   Clear